Location: Haliburton Scout Reserve
(45.0900°N, 78.3200°W)
Time: 03:53:46
(UTC-04:00)

NOAA 15 - Visible Passes

Search period start: 02 April 2023 00:00
Search period end: 12 April 2023 00:00
Orbit: 796 x 812 km, 98.6° (Epoch: 01 April)

Date Brightness Start Highest point End Pass type
(mag) Time Alt. Az. Time Alt. Az. Time Alt. Az.
02 Apr 6.0 20:43:48 10° SSW 20:48:45 40° W 20:53:44 10° NNW visible
03 Apr 5.1 20:17:58 10° S 20:23:14 67° WSW 20:28:32 10° NNW visible
04 Apr 7.4 21:35:09 10° SW 21:38:10 15° W 21:41:11 10° NW visible
05 Apr 6.8 21:08:07 10° SSW 21:12:27 25° W 21:16:48 10° NW visible
06 Apr 6.0 20:41:52 10° SSW 20:46:52 41° W 20:51:52 10° NNW visible
07 Apr 5.0 20:16:04 10° S 20:21:21 69° WSW 20:26:38 10° NNW visible
08 Apr 7.3 21:33:06 10° SW 21:36:14 16° W 21:39:23 10° NW visible
09 Apr 6.8 21:06:10 10° SSW 21:10:32 26° W 21:14:57 10° NW visible
10 Apr 5.9 20:39:56 10° S 20:44:57 43° W 20:49:58 10° NNW visible
11 Apr 5.0 20:14:10 10° S 20:19:26 72° WSW 20:24:44 10° NNW visible
